STARLINK-4366 (53227 NORAD) Tracking and Keplerian Element Data

This shows tracking and keplerian element data for the satellite.

Feedback or suggestion? Click here.




ElementValue
Catalog53227
NameSTARLINK-4366
Epoch Orbit1034
Epoch Day270.12552196
Epoch Year2022
RAAN329.9614
Inclination97.6554
Eccentricity0.0001631
Argument of Perigee95.7982
Mean Anonmoly264.3428
Mean Motion15.01263424
Decay Rate3.5E-07
L11 53227U 22084AQ 22270.12552196 .00000035 00000+0 73405-5 0 9990
L22 53227 97.6554 329.9614 0001631 95.7982 264.3428 15.01263424 10347

Live tracking and technical data element details for STARLINK-4366 (NORAD 53227). STARLINK-4366 can be tracked NOW for your location showing map with azimuth and elevation plus other details from your city location.

Track the satellite on the map from your city or location and see movement details for azimuth, elevation, latitude, longitude, range, height, and movement on the map or in text.







IsCatalogInMostPopularTable: catalog: 53227, numindb: 6
Update: records affected: 1



GetName: 53227 STARLINK-4366

Hit Count: updated at: Wed, 28 Sep 2022 22:53:23 GMT